Flag for Romania Weather past 2 weeks in Cluj-Napoca, Romania

Now
52 °F

More clouds than sun.


Feels Like: 48 °F
Forecast: 37 / 61 °F
Wind: 12 mph from Northeast

Location: Cluj Airport-Napoca


UV Index: 0 (Low)

Visibility: N/A


Pressure: 29.98 "Hg

Humidity: 54%

Dew point: 36 °F

Location of Cluj-NapocaLocation

Historic Weather in Cluj-Napoca

°F

Cluj-Napoca temperature yesterday

Maximum temperature yesterday: 54 °F (at 5:00 PM)
Minimum temperature yesterday: 43 °F (at 9:30 PM)
Average temperature yesterday: 47 °F

Past Weeks' High & Low Weather Summary

 TemperatureHumidityPressure
High70 °F (Apr 8, 6:00 PM)100% (Apr 9, 7:00 AM)30.09 "Hg (Apr 9, 7:00 AM)
Low36 °F (Apr 3, 6:30 AM)24% (Apr 1, 4:30 PM)29.77 "Hg (Apr 3, 8:00 PM)
Average51 °F69%29.94 "Hg
* Reported Apr 1 3:30 PM — Apr 16 3:30 PM, Cluj-Napoca, Weather by CustomWeather, © 2014

Note: Actual official high and low records may vary slightly from our data, if they occured in-between our weather recording intervals... More about our weather records

Advertising

Historic Weather Conditions — Data for Previous 24 hours

 ConditionsComfort  
Time TempWeatherWind HumidityBarometerVisibility
3:30 PM
Apr 16
52 °FMore clouds than sun.12 mph54%29.98 "HgN/A
3:00 PM52 °FCloudy.9 mph50%29.98 "HgN/A
2:30 PM50 °FCloudy.7 mph58%29.98 "HgN/A
2:00 PM50 °FCloudy.5 mph62%29.98 "HgN/A
1:30 PM50 °FCloudy.5 mph62%30.01 "HgN/A
1:00 PM48 °FMostly cloudy.7 mph66%30.01 "HgN/A
12:30 PM48 °FMostly cloudy.7 mph71%30.01 "HgN/A
12:00 PM46 °FMostly cloudy.7 mph76%30.01 "HgN/A
11:30 AM45 °FMostly cloudy.7 mph81%30.01 "HgN/A
11:00 AM45 °FLight rain. Mostly cloudy.5 mph87%30.01 "HgN/A
10:30 AM45 °FLight rain. Mostly cloudy.2 mph81%30.01 "HgN/A
10:00 AM43 °FLight rain. More clouds than sun.5 mph81%30.01 "HgN/A
9:30 AM43 °FLight rain. More clouds than sun.5 mph81%29.98 "HgN/A
9:00 AM41 °FMore clouds than sun.7 mph93%29.98 "HgN/A
8:30 AM41 °FMore clouds than sun.7 mph87%29.98 "HgN/A
8:00 AM41 °FLight rain. More clouds than sun.7 mph93%29.98 "HgN/A
7:30 AM41 °FLight rain. Mostly cloudy.7 mph87%29.95 "HgN/A
7:00 AM41 °FLight rain. Overcast.5 mph87%29.95 "HgN/A
6:30 AM41 °FLight rain. Overcast.5 mph87%29.95 "HgN/A
6:00 AM41 °FLight rain. Overcast.5 mph87%29.95 "HgN/A
5:30 AM41 °FDrizzle. Overcast.2 mph87%29.95 "HgN/A
5:00 AM43 °FOvercast.2 mph81%29.95 "HgN/A
4:00 AM43 °FPassing clouds.2 mph81%29.95 "HgN/A
2:00 AM43 °FPassing clouds.2 mph81%29.95 "HgN/A
1:00 AM45 °FPassing clouds.9 mph71%29.92 "HgN/A
12:00 AM43 °FPassing clouds.7 mph76%29.92 "HgN/A
11:30 PM
Apr 15
43 °FPassing clouds.9 mph76%29.92 "HgN/A
11:00 PM43 °FPassing clouds.5 mph76%29.92 "HgN/A
10:30 PM45 °FPassing clouds.7 mph71%29.92 "HgN/A
10:00 PM45 °FPassing clouds.5 mph71%29.92 "HgN/A
9:30 PM43 °FPassing clouds.2 mph76%29.92 "HgN/A
9:00 PM45 °FScattered clouds.9 mph71%29.89 "HgN/A
8:30 PM46 °FScattered clouds.9 mph66%29.89 "HgN/A
8:00 PM46 °FScattered clouds.12 mph71%29.89 "HgN/A
7:30 PM48 °FPartly sunny.14 mph66%29.89 "HgN/A
7:00 PM48 °FScattered clouds.14 mph66%29.89 "HgN/A
6:00 PM52 °FScattered clouds.7 mph47%29.86 "HgN/A
5:30 PM54 °FScattered clouds.12 mph47%29.83 "HgN/A
5:00 PM54 °FScattered clouds.7 mph47%29.83 "HgN/A
4:30 PM52 °FPartly sunny.9 mph47%29.86 "HgN/A
4:00 PM52 °FPartly sunny.12 mph50%29.83 "HgN/A
Weather by CustomWeather, © 2014

See weather overview